SCP
0 0 1 0 1 1 0 0 -0 0 0 -0 0 0 0 0 0 0 0 0 1 2
-0 0 0 0 0 -0 -0 -0 0 -0 -0 -0 -0 -0 -0 -0 0 0 0 0 0 0
0 0 0 0 0 -0 -0 -0 -0 -0 -0 -0 -0 -0 -0 -0 0 -0 0 0 0 0
0 0 0 -0 -0 -0 0 -0 -0 -0 -0 -0 -0 -0 -0 -0 -0 -0 -0 0 0 0
0 1 0 0 0 -0 -0 -0 -0 0 0 0 0 0 -0 -0 -0 -0 -0 0 0 0
0 1 0 0 0 0 0 0 0 0 0 0 0 0 0 0 0 0 0 0 0 0
1 1 0 0 0 0 0 0 0 0 0 0 0 0 0 0 0 0 0 0 0 0
1 1 1 1 1 1 1 0 0 0 0 0 0 0 0 0 0 0 0 0 0 0
1 1 1 1 1 1 1 1 1 0 0 0 0 0 0 -0 0 0 0 0 0 0
1 2 2 1 1 1 1 1 1 1 0 0 0 0 0 0 0 0 0 0 0 0
3 2 3 2 1 1 1 1 1 1 1 1 0 0 0 0 0 0 0 0 0 0
2 5 3 5 3 2 1 1 2 1 1 1 1 0 0 0 0 0 0 0 0 0
6 7 9 6 4 2 2 2 1 1 1 1 1 1 0 0 0 0 0 0 0 0
0 2 3 3 2 1 1 1 1 1 1 1 1 1 0 0 0 0 1 0 0 0
Wind_Speed_500mb
65 58 49 40 34 32 42 37 31 34 32 39 40 45 47 42 34 34 40 43 56 51
60 53 39 37 31 20 23 24 34 32 33 33 40 45 46 41 35 34 38 40 44 48
55 47 49 42 32 27 17 16 23 27 28 33 39 41 41 40 33 32 33 37 39 41
52 50 49 41 33 34 28 23 21 22 24 25 28 34 36 39 30 30 32 39 41 37
54 52 47 41 34 31 26 18 19 21 22 22 23 21 23 27 25 28 30 31 34 35
44 54 45 41 38 33 23 20 20 22 21 20 21 22 22 23 23 25 26 28 31 32
37 35 28 38 38 34 26 23 19 20 20 21 21 23 24 23 25 25 25 26 29 27
37 29 24 23 26 28 28 24 21 20 21 23 23 22 26 25 26 26 27 28 29 29
19 23 23 27 26 26 26 26 24 21 20 23 23 29 35 29 25 27 28 27 28 30
36 27 27 28 27 28 24 22 22 21 22 25 25 34 28 32 33 31 32 33 32 31
38 45 40 36 30 28 29 25 25 24 25 26 26 34 29 33 37 38 38 37 34 35
50 48 52 50 36 35 33 29 30 30 32 33 32 38 33 35 39 38 40 39 39 39
37 48 54 47 34 32 34 29 32 33 35 37 42 42 45 42 42 42 41 42 45 53
59 54 41 28 20 28 27 28 32 36 40 45 50 52 52 53 59 53 52 51 50 53
Wind_Direction_500mb
227 228 231 240 253 254 257 255 247 255 248 246 244 247 250 252 252 244 237 226 217 214
226 224 219 225 255 239 241 232 244 248 252 252 251 251 243 248 244 234 237 228 222 221
221 216 221 231 236 222 210 234 242 240 241 250 249 245 243 242 236 233 228 226 224 225
208 210 215 226 228 224 221 244 243 244 242 240 244 250 244 234 226 229 228 229 231 232
199 203 212 221 221 223 222 236 240 241 242 242 239 228 229 230 233 229 225 226 228 231
194 202 215 214 211 210 217 227 235 237 238 234 231 229 222 221 231 232 228 225 229 232
189 203 214 214 210 213 214 220 232 234 236 234 231 235 226 228 226 231 235 234 233 233
188 195 195 206 215 205 205 212 225 232 231 232 226 234 241 230 233 235 236 236 233 234
217 180 197 206 213 221 207 214 226 227 229 235 235 239 240 227 236 240 239 240 246 235
211 183 194 221 206 219 217 208 217 218 225 230 237 245 244 239 236 240 242 245 244 243
218 207 208 215 226 222 228 215 218 223 228 233 240 249 243 242 246 245 246 243 242 240
207 200 206 209 222 238 237 232 234 235 234 238 238 251 249 244 250 248 246 245 239 237
223 206 202 210 215 239 243 245 247 250 251 256 256 257 254 250 243 248 248 245 243 244
219 193 191 184 204 233 243 247 252 259 258 259 259 256 254 252 251 243 248 247 246 243
Wind_Speed_850mb
65 58 49 40 34 32 42 37 31 34 32 39 40 45 47 42 34 34 40 43 56 51
60 53 39 37 31 20 23 24 34 32 33 33 40 45 46 41 35 34 38 40 44 48
55 47 49 42 32 27 17 16 23 27 28 33 39 41 41 40 33 32 33 37 39 41
52 50 49 41 33 34 28 23 21 22 24 25 28 34 36 39 30 30 32 39 41 37
54 52 47 41 34 31 26 18 19 21 22 22 23 21 23 27 25 28 30 31 34 35
44 54 45 41 38 33 23 20 20 22 21 20 21 22 22 23 23 25 26 28 31 32
37 35 28 38 38 34 26 23 19 20 20 21 21 23 24 23 25 25 25 26 29 27
37 29 24 23 26 28 28 24 21 20 21 23 23 22 26 25 26 26 27 28 29 29
19 23 23 27 26 26 26 26 24 21 20 23 23 29 35 29 25 27 28 27 28 30
36 27 27 28 27 28 24 22 22 21 22 25 25 34 28 32 33 31 32 33 32 31
38 45 40 36 30 28 29 25 25 24 25 26 26 34 29 33 37 38 38 37 34 35
50 48 52 50 36 35 33 29 30 30 32 33 32 38 33 35 39 38 40 39 39 39
37 48 54 47 34 32 34 29 32 33 35 37 42 42 45 42 42 42 41 42 45 53
59 54 41 28 20 28 27 28 32 36 40 45 50 52 52 53 59 53 52 51 50 53
Wind_Direction_850mb
227 228 231 240 253 254 257 255 247 255 248 246 244 247 250 252 252 244 237 226 217 214
226 224 219 225 255 239 241 232 244 248 252 252 251 251 243 248 244 234 237 228 222 221
221 216 221 231 236 222 210 234 242 240 241 250 249 245 243 242 236 233 228 226 224 225
208 210 215 226 228 224 221 244 243 244 242 240 244 250 244 234 226 229 228 229 231 232
199 203 212 221 221 223 222 236 240 241 242 242 239 228 229 230 233 229 225 226 228 231
194 202 215 214 211 210 217 227 235 237 238 234 231 229 222 221 231 232 228 225 229 232
189 203 214 214 210 213 214 220 232 234 236 234 231 235 226 228 226 231 235 234 233 233
188 195 195 206 215 205 205 212 225 232 231 232 226 234 241 230 233 235 236 236 233 234
217 180 197 206 213 221 207 214 226 227 229 235 235 239 240 227 236 240 239 240 246 235
211 183 194 221 206 219 217 208 217 218 225 230 237 245 244 239 236 240 242 245 244 243
218 207 208 215 226 222 228 215 218 223 228 233 240 249 243 242 246 245 246 243 242 240
207 200 206 209 222 238 237 232 234 235 234 238 238 251 249 244 250 248 246 245 239 237
223 206 202 210 215 239 243 245 247 250 251 256 256 257 254 250 243 248 248 245 243 244
219 193 191 184 204 233 243 247 252 259 258 259 259 256 254 252 251 243 248 247 246 243